Peoria, IL

11:34 AM CDT on April 28, 2017 (GMT -0500)
Greater Peoria Regional

Weather History for KPIA - October, 2013

Change the Weather History Date:

Tuesday, October 22, 2013

  Actual Average Record
Temperature  
Mean Temperature 37 °F 52 °F  
Max Temperature 43 °F 62 °F 84 °F (1927)
Min Temperature 30 °F 42 °F 22 °F (1976)
Degree Days  
Heating Degree Days 28 13  
Month to date heating degree days 176 223  
Since 1 July heating degree days 208 313  
Cooling Degree Days 0 0  
Month to date cooling degree days 40 12  
Year to date cooling degree days 1174 1036  
Moisture  
Dew Point 35 °F    
Average Humidity 87    
Maximum Humidity 96    
Minimum Humidity 78    
Precipitation  
Precipitation 0.35 in 0.10 in 1.89 in (2009)
Month to date precipitation 2.80 1.96  
Year to date precipitation 36.48 30.06  
Snow  
Snow 0.00 in 0.00 in T in (1989)
Month to date snowfall 0.0 0.0  
Since 1 July snowfall 0.0 0.0  
Since 1 September snowfall 0.0 0.0  
Snow Depth 0.00 in    
Sea Level Pressure  
Sea Level Pressure 29.94 in    
Wind  
Wind Speed 5 mph (NE)    
Max Wind Speed 15 mph    
Max Gust Speed 21 mph    
Visibility 7 miles    
Events Rain    
T = Trace of Precipitation, MM = Missing Value Source: NWS Daily Summary

Daily Weather History Graph

Daily Weather History Graph

Search for Another Location

Airport or City:

Trip Planner

Search our weather history database for the weather conditions in past years. The results will help you decide how hot, cold, wet, or windy it might be!

Date:

Astronomy

Oct. 22, 2013 Rise Set
Actual Time 7:17 AM CDT 6:07 PM CDT
Civil Twilight 6:49 AM CDT 6:35 PM CDT
Nautical Twilight 6:18 AM CDT 7:07 PM CDT
Astronomical Twilight 5:46 AM CDT 7:39 PM CDT
Moon 8:47 PM CDT (10/22) 10:46 AM CDT (10/22)
Length of Visible Light 11h 45m
Length of Day
10h 50m
Waning Gibbous, 86% of the Moon is Illuminated
Oct 22
Waning Gibbous
Oct 26
Last Quarter
Nov 3
New
Nov 9
First Quarter
Nov 17
Full

Hourly Weather History & Observations

Time (CDT) Temp. Windchill Dew Point Humidity Pressure Visibility Wind Dir Wind Speed Gust Speed Precip Events Conditions
12:54 AM 32.0 °F - 27.0 °F 82% 30.04 in 10.0 mi Calm Calm - N/A   Clear
1:54 AM 32.0 °F - 26.1 °F 79% 30.05 in 10.0 mi Calm Calm - N/A   Clear
2:54 AM 30.9 °F - 27.0 °F 85% 30.04 in 10.0 mi Calm Calm - N/A   Clear
3:54 AM 30.9 °F - 27.0 °F 85% 30.03 in 10.0 mi Calm Calm - N/A   Overcast
4:54 AM 33.1 °F - 28.9 °F 85% 30.02 in 10.0 mi Calm Calm - N/A   Overcast
5:54 AM 34.0 °F - 28.9 °F 82% 30.02 in 10.0 mi Calm Calm - N/A   Overcast
6:54 AM 35.1 °F - 30.0 °F 82% 30.01 in 10.0 mi Calm Calm - N/A   Overcast
7:54 AM 36.0 °F - 30.9 °F 82% 30.01 in 10.0 mi Calm Calm - N/A   Overcast
8:54 AM 37.0 °F - 30.9 °F 79% 30.01 in 9.0 mi Calm Calm - 0.00 in Rain Light Rain
9:54 AM 37.9 °F 33.5 °F 34.0 °F 86% 29.98 in 10.0 mi East 5.8 mph - 0.01 in Rain Light Rain
10:54 AM 39.9 °F 33.9 °F 36.0 °F 86% 29.95 in 9.0 mi East 9.2 mph - 0.00 in Rain Light Rain
11:54 AM 41.0 °F 37.1 °F 37.0 °F 86% 29.94 in 5.0 mi East 5.8 mph - 0.03 in Rain Light Rain
12:07 PM 41.0 °F 38.0 °F 37.9 °F 89% 29.91 in 4.0 mi East 4.6 mph - 0.02 in Rain Rain
12:54 PM 42.1 °F 36.1 °F 39.0 °F 89% 29.90 in 4.0 mi East 10.4 mph - 0.09 in Rain Light Rain
1:12 PM 42.1 °F 36.1 °F 39.0 °F 89% 29.87 in 2.5 mi East 10.4 mph - 0.01 in Rain Light Rain
1:21 PM 42.1 °F 36.1 °F 39.0 °F 89% 29.86 in 3.0 mi East 10.4 mph - 0.02 in Rain Light Rain
1:54 PM 42.1 °F 37.1 °F 39.9 °F 92% 29.86 in 10.0 mi East 8.1 mph 20.7 mph 0.04 in   Overcast
2:21 PM 42.1 °F 37.7 °F 39.9 °F 92% 29.84 in 4.0 mi East 6.9 mph - 0.01 in Rain Rain
2:54 PM 43.0 °F 37.7 °F 39.9 °F 89% 29.86 in 5.0 mi NE 9.2 mph - 0.04 in Rain Light Rain
3:03 PM 43.0 °F 38.2 °F 39.9 °F 89% 29.84 in 3.0 mi ENE 8.1 mph - 0.01 in Rain Light Rain
3:10 PM 43.0 °F 38.8 °F 39.9 °F 89% 29.84 in 2.5 mi ENE 6.9 mph - 0.02 in Rain Rain
3:25 PM 43.0 °F 39.5 °F 41.0 °F 93% 29.84 in 3.0 mi East 5.8 mph - 0.04 in Rain Light Rain
3:48 PM 42.8 °F 40.1 °F 41.0 °F 93% 29.84 in 4.0 mi ENE 4.6 mph - 0.04 in Rain Light Rain
3:54 PM 43.0 °F 41.3 °F 41.0 °F 93% 29.86 in 3.0 mi NE 3.5 mph - 0.04 in Rain Light Rain
4:01 PM 43.0 °F - 41.0 °F 93% 29.84 in 2.0 mi North - - 0.01 in Rain Light Rain
4:15 PM 43.0 °F 37.2 °F 39.9 °F 89% 29.84 in 3.0 mi NNE 10.4 mph - 0.01 in Rain Light Rain
4:24 PM 42.1 °F 38.4 °F 39.9 °F 92% 29.84 in 2.5 mi NNE 5.8 mph - 0.02 in Rain Light Rain
4:54 PM 39.9 °F 33.4 °F 37.0 °F 89% 29.87 in 4.0 mi NNE 10.4 mph - 0.05 in Rain Light Rain
5:54 PM 37.9 °F 30.9 °F 35.1 °F 89% 29.89 in 7.0 mi NE 10.4 mph - 0.03 in Rain Light Rain
6:54 PM 37.0 °F 28.9 °F 34.0 °F 89% 29.92 in 10.0 mi NE 12.7 mph - 0.02 in Rain Light Rain
7:54 PM 37.0 °F 31.6 °F 35.1 °F 93% 29.95 in 8.0 mi NNE 6.9 mph - 0.00 in   Overcast
8:54 PM 37.0 °F 33.3 °F 35.1 °F 93% 29.97 in 9.0 mi Variable 4.6 mph - N/A   Overcast
9:54 PM 37.0 °F 32.4 °F 34.0 °F 89% 29.99 in 7.0 mi North 5.8 mph - N/A   Overcast
10:54 PM 37.0 °F 33.3 °F 35.1 °F 93% 29.99 in 6.0 mi NNW 4.6 mph - N/A   Overcast
11:08 PM 37.0 °F 33.3 °F 35.1 °F 93% 29.98 in 6.0 mi NNW 4.6 mph - N/A   Overcast
11:39 PM 37.0 °F 32.4 °F 35.1 °F 93% 29.98 in 5.0 mi Variable 5.8 mph - N/A   Overcast
11:54 PM 37.0 °F 32.4 °F 35.1 °F 93% 30.00 in 6.0 mi NW 5.8 mph - N/A   Overcast